Location: Unspecified
(48.8582°N, 2.2947°E)
Time: 09:52:32
(UTC+01:00)

Daily predictions for brighter satellites

Satellite Brightness Start Highest point End
(mag) Time Altitude Azimuth Time Altitude Azimuth Time Altitude Azimuth
YAOGAN 1 4.4 18:57:38 10° SSW 19:01:39 37° W 19:05:42 10° NNW
Helios 1A 4.5 19:08:20 10° ESE 19:11:10 18° ENE 19:14:00 10° NNE
Cosmos 1300 Rocket 3.8 19:07:41 10° S 19:11:57 50° E 19:16:16 10° NNE
Cosmos 1833 4.2 19:08:44 10° SSW 19:14:23 70° ESE 19:20:00 10° NNE
USA 229 DEB 3.8 19:07:54 10° NW 19:15:01 72° NE 19:22:15 10° SE
USA 229 3.8 19:08:00 10° NW 19:15:07 71° NE 19:22:20 10° SE
Cosmos 407 Rocket 4.0 19:11:36 10° SSW 19:16:50 66° WNW 19:22:11 10° NNE
Meteor 1-11 Rocket 3.9 19:12:22 10° S 19:18:03 56° E 19:23:52 10° NNE
Cosmos 2333 Rocket 2.8 19:12:54 10° NNW 19:18:16 39° NE 19:23:38 10° ESE
Cosmos 1536 3.4 19:14:50 10° SSE 19:18:27 35° E 19:22:06 10° NNE
Cosmos 1741 Rocket 4.4 19:13:45 10° S 19:18:34 39° ESE 19:23:24 10° NE
COSMO-SKYMED 1 2.8 19:15:13 10° N 19:19:35 78° WNW 19:23:55 10° SSW
Cosmos 2181 Rocket 4.0 19:13:20 10° N 19:19:38 82° E 19:25:59 10° S
Cosmos 1980 4.5 19:14:45 10° NNW 19:19:52 33° NE 19:24:56 10° ESE
NOAA 12 4.2 19:16:59 10° SSE 19:22:19 88° WSW 19:27:43 10° NNW
Abrixas rocket 3.9 19:21:46 10° SSW 19:24:17 20° SSE 19:26:08 13° ESE
Cosmos 676 Rocket 4.2 19:19:36 10° SSW 19:24:48 77° WNW 19:30:05 10° NNE
FREGAT/IRIS 2.5 19:22:08 10° SSE 19:25:13 76° ENE 19:28:19 10° N
NOSS 3-1 (A) 4.4 19:20:24 10° NW 19:27:15 44° NNE 19:34:09 13° ESE
FENGYUN 3A 3.7 19:22:50 10° SSE 19:28:08 60° ENE 19:33:30 10° N
Cosmos 1340 3.7 19:24:49 10° NNW 19:28:30 50° W 19:32:10 10° S
Cosmos 1140 Rocket 3.4 19:23:26 10° SSW 19:28:33 75° ESE 19:33:44 10° NNE
Cosmos 614 Rocket 4.0 19:25:01 10° S 19:29:59 59° ESE 19:34:59 10° NNE
USA 215 3.7 19:24:50 10° NE 19:31:16 61° NNW 19:37:40 10° W
Resurs 01 Rocket 1.8 19:27:45 10° SE 19:31:59 48° ENE 19:36:14 10° N
ATLAS 2AS CENTAUR R/B 4.2 19:24:57 10° NW 19:31:59 30° NNE 19:38:18 12° ENE
Cosmos 1709 Rocket 4.0 19:25:51 10° S 19:32:03 87° W 19:38:15 10° N
Cosmos 1602 3.7 19:28:10 10° S 19:32:04 88° E 19:36:01 10° N
Cosmos 1818 4.1 19:27:35 10° SW 19:33:00 63° NW 19:38:27 10° NE
Cosmos 1570 Rocket 4.1 19:27:51 10° NNW 19:33:06 84° WSW 19:38:21 10° SSE
Cosmos 2074 Rocket 4.3 19:27:35 10° SSE 19:33:29 46° E 19:39:27 10° NNE
ATLAS CENTAUR R/B 4.1 19:33:59 10° NNW 19:34:37 10° NNW 19:35:14 10° N
Cosmos 2184 Rocket 4.2 19:33:36 10° SSE 19:39:36 49° E 19:45:34 10° NNE
Cosmos 1437 4.1 19:37:28 10° NNE 19:40:07 22° ENE 19:40:40 21° E
Cosmos 1238 Rocket 3.5 19:38:25 10° NNW 19:41:16 42° W 19:44:07 10° SSW
Cosmos 468 Rocket 4.2 19:37:15 10° NNW 19:42:22 50° ENE 19:47:30 10° SE
Resurs 1-3 3.7 19:38:48 10° SE 19:43:03 52° ENE 19:47:19 10° N
NOSS 3-1 (C) 4.1 19:38:22 10° NW 19:45:33 59° NE 19:52:25 15° ESE
Meteor 1-5 Rocket 4.4 19:42:24 10° S 19:48:08 52° E 19:53:48 10° NNE
CZ-4B DEB 4.2 19:48:37 20° NE 19:48:37 20° NE 19:50:38 10° NNE
FengYun 1-2 T 4.2 19:45:17 10° SSE 19:50:47 87° ENE 19:56:21 10° NNW
Spot 2 Rocket 3.4 19:46:44 10° SSE 19:51:46 73° ENE 19:56:52 10° NNW
Cosmos 1892 Rocket 3.8 19:48:03 10° N 19:52:15 45° ENE 19:56:27 10° SSE
Okean 1 Rocket 3.1 19:47:46 10° S 19:52:16 84° W 19:56:47 10° N
Nadezhda 3 Rocket 4.3 19:47:11 10° N 19:53:02 42° ENE 19:58:52 10° SE
Cosmos 1025 Rocket 3.0 19:51:20 10° N 19:55:46 89° E 20:00:09 10° S
NOSS 0 Rocket 3.9 19:50:46 10° NNW 19:56:56 71° ENE 20:02:53 11° SE
Cosmos 1633 4.0 19:54:36 10° SSW 19:58:06 41° WNW 20:01:38 10° N
Cosmos 1814 Rocket 4.0 19:58:04 10° NNW 20:03:11 56° ENE 20:06:42 19° SE
Cosmos 2237 Rocket 2.3 19:59:24 10° NNW 20:05:04 59° ENE 20:08:56 20° SE
ERS-1 Rocket 4.0 20:05:11 24° ENE 20:05:49 24° ENE 20:09:50 10° N
Cosmos 2285 Rocket 4.1 20:00:05 10° NNW 20:06:34 82° WSW 20:12:58 10° SSE
Cosmos 332 Rocket 4.4 20:03:01 10° N 20:07:37 38° ENE 20:09:10 30° E
Cosmos 1850 Rocket 4.1 20:02:18 10° SSW 20:07:37 83° WNW 20:13:01 10° NNE
Envisat 3.5 20:06:15 26° ESE 20:08:21 37° ENE 20:13:01 10° N
COSMOS 2428 3.5 20:02:57 10° NW 20:08:29 52° WSW 20:13:58 10° S
Cosmos 2154 Rocket 4.3 20:03:06 10° SSE 20:09:03 44° E 20:15:02 10° NNE
Spot 1 3.9 20:05:43 15° SSE 20:09:05 64° ENE 20:13:17 10° N
Cosmos 2297 Rocket 3.8 20:06:51 10° SSE 20:08:20 16° SE 20:08:20 16° SE
Cosmos 1515 3.9 20:08:18 10° N 20:12:03 46° ENE 20:12:48 40° ESE
Gbstr 26 Del rocket 2.5 20:13:11 10° WSW 20:16:57 81° SSE 20:17:55 48° ENE
Cosmos 371 Rocket 3.9 20:12:59 10° N 20:17:31 36° ENE 20:18:18 34° E
Cosmos 2219 Rocket 2.3 20:12:03 10° NNW 20:17:40 75° WSW 20:23:16 10° SSE
ALOS 3.2 20:14:22 10° S 20:18:53 49° W 20:23:27 10° NNW
Cosmos 1544 Rocket 3.6 20:15:43 10° S 20:19:54 51° E 20:24:07 10° NNE
Cosmos 405 Rocket 2.9 20:19:38 10° NNW 20:23:44 79° W 20:27:14 13° S
USA 186 2.2 20:26:15 44° N 20:26:15 44° N 20:28:18 10° N
Cosmos 2219 3.4 20:23:21 10° SSW 20:29:06 75° WNW 20:34:52 10° NNE
SJ-11-01 4.4 20:29:24 44° ESE 20:30:26 54° ENE 20:35:05 10° N
Cosmos 1602 Rocket 4.1 20:26:41 10° N 20:30:18 39° NE 20:30:18 39° NE
Cosmos 2227 Rocket 2.5 20:26:04 10° S 20:31:21 42° ESE 20:32:08 40° E
H-2A R/B 3.8 20:28:09 10° S 20:31:44 44° W 20:35:22 10° NNW
CZ-2D R/B 3.7 20:28:13 10° S 20:31:59 59° W 20:35:47 10° NNW
Cosmos 1626 Rocket 3.9 20:31:39 10° N 20:35:30 45° NE 20:35:30 45° NE
Okean 2 4.4 20:34:21 10° NNW 20:38:21 46° W 20:42:21 10° SSW
Cosmos 962 Rocket 4.5 20:33:41 10° SSE 20:39:41 56° E 20:45:40 10° NNE
Meteor 2-8 Rocket 4.4 20:33:52 10° N 20:39:53 62° ENE 20:42:18 36° SE
Aureole 2 Rocket 4.0 20:36:41 10° NNW 20:38:28 25° N 20:38:28 25° N
SL-16 R/B 2.4 20:35:09 10° NNW 20:40:43 51° NE 20:41:38 47° E
Helios 1B rocket 2.3 20:39:43 10° NNE 20:43:54 82° ESE 20:48:04 10° SSW
Cosmos 841 Rocket 3.3 20:39:52 10° NNW 20:45:02 72° ENE 20:45:59 57° SE
Helios 1A 3.6 20:43:31 19° S 20:46:22 55° WSW 20:50:28 10° NNW
H-2A R/B 4.0 20:48:46 17° NE 20:48:46 17° NE 20:50:56 10° NNE
Cosmos 1441 Rocket 3.4 20:49:04 10° NNW 20:52:48 74° NW 20:52:48 74° NW
Cosmos 1763 Rocket 3.5 20:50:43 10° NNW 20:55:52 79° WSW 20:57:14 50° S
Cosmos 1939 Rocket 3.5 20:57:21 47° N 20:57:21 47° N 21:00:17 10° NNW
Cosmos 1455 Rocket 3.0 20:53:02 10° SSW 20:57:24 81° W 21:01:48 10° N
Cosmos 540 Rocket 4.0 20:55:44 10° NNW 20:59:48 42° NNE 20:59:48 42° NNE
Abrixas rocket 4.3 20:57:25 10° WSW 20:58:54 24° WSW 20:58:54 24° WSW
Cosmos 2333 Rocket 3.3 20:57:13 10° NW 21:02:37 43° WSW 21:06:44 17° S
Cosmos 1980 4.4 20:58:43 10° NW 21:04:11 51° WSW 21:07:05 26° S
GEOS 3 Rocket 3.5 21:04:56 55° NE 21:06:10 90° W 21:11:27 10° SW
Resurs 01 Rocket 4.1 21:05:24 10° SW 21:08:43 21° W 21:12:03 10° NW
USA 215 4.0 21:11:12 31° NE 21:13:44 44° N 21:19:49 10° WNW
NOSS 3-1 (A) 4.2 21:11:18 10° NW 21:18:45 70° SW 21:21:39 43° SSE
Cosmos 1295 Rocket 4.4 21:20:46 49° S 21:22:40 89° E 21:29:01 10° N
SL-8 Rocket 4.1 21:24:08 60° NE 21:24:08 60° NE 21:29:24 10° NNE
ATLAS 2AS CENTAUR R/B 3.1 21:16:44 10° NW 21:24:47 57° NE 21:25:45 54° ENE
SPOT 5 4.1 21:27:14 34° N 21:27:14 34° N 21:30:14 10° N
Cosmos 2082 4.4 21:27:40 10° SSW 21:31:35 45° SW 21:31:35 45° SW
ERS-1 Rocket 3.8 21:45:10 48° WNW 21:45:10 48° WNW 21:49:15 10° NNW
Envisat 4.4 21:46:27 31° WSW 21:47:24 34° W 21:52:01 10° NNW
ARGOS 4.3 21:49:45 36° N 21:49:45 36° N 21:52:54 10° NNW
Cosmos 2237 Rocket 4.0 21:44:06 10° NW 21:48:44 26° WSW 21:50:49 21° SW
Cosmos 2297 Rocket 4.2 21:49:09 10° SW 21:50:21 17° SW 21:50:21 17° SW
Cosmos 1727 Rocket 4.5 21:57:22 10° NNW 22:02:20 56° NNW 22:02:20 56° NNW
Cosmos 2227 Rocket 3.6 22:10:11 10° WSW 22:22:30 - NNE 22:14:14 35° W
SL-16 R/B 3.9 22:19:42 10° NW 22:23:33 28° W 22:23:33 28° W
H-2A R/B 4.1 22:29:23 24° NNW 22:29:23 24° NNW 22:31:29 10° NNW
USA 215 4.4 22:58:31 37° NW 22:58:31 37° NW 23:02:28 10° WNW
ATLAS 2AS CENTAUR R/B 4.1 23:08:09 10° NW 23:13:12 37° WNW 23:13:12 37° WNW
